Location: Acts Church of Fort Worth
(32.6786°N, 97.2668°W)
Time: 20:47:32
(UTC+00:00)

USA 215 - Pass Details

Date: 18 January 2026
Orbit: 1098 x 1109 km, 123.0° (Epoch: 10 January)

Event Time Altitude Azimuth Distance (km) Brightness Sun altitude
Exits shadow 01:12:33 16° 36° (NE) 2,532 4.7 -17.7°
Maximum altitude 01:17:54 70° 315° (NW) 1,162 3.4 -18.8°
Drops below altitude 10° 01:24:22 10° 233° (SW) 2,946 6.5 -20.1°
Sets 01:26:50 0° 231° (SW) 3,900 7.2 -20.6°
